Flag for Poland Weather past 2 weeks in Zabrze, Poland

Now
59 °F

Fog.


Feels Like: 58 °F
Forecast: 50 / 61 °F
Wind: 6 mph from North

Location: Katowice Airport

Current Time: Oct 1, 2014 at 8:22:12 PM

Latest Report: Oct 1, 2014 at 8:00 PM


Visibility: 3 mi

Pressure: 30.30 "Hg

Humidity: 94%

Dew point: 57 °F

Location of ZabrzeLocation

Historic Weather in Zabrze — Graph

°F

Zabrze temperature yesterday

Maximum temperature yesterday: 70 °F (at 2:30 PM)
Minimum temperature yesterday: 54 °F (at 6:00 AM)
Average temperature yesterday: 61 °F

Past Weeks' High & Low Weather Summary

 TemperatureHumidityPressure
High73 °F (Sep 19, 3:00 PM)100% (Sep 18, 5:30 AM)30.42 "Hg (Sep 18, 5:30 AM)
Low32 °F (Sep 24, 5:30 AM)38% (Sep 19, 1:00 PM)29.71 "Hg (Sep 22, 3:30 AM)
Average56 °F82%30.09 "Hg
* Reported Sep 16 7:00 PM — Oct 1 7:00 PM, Zabrze, Weather by CustomWeather, © 2014

Note: Actual official high and low records may vary slightly from our data, if they occured in-between our weather recording intervals... More about our weather records

Advertising

Zabrze weather history for previous 24 hours

 ConditionsComfort  
Time TempWeatherWind HumidityBarometerVisibility
7:00 PM
Oct 1
59 °FPartly sunny.6 mph100%30.27 "Hg4 mi
6:30 PM59 °FFog.6 mph100%30.27 "Hg3 mi
6:00 PM61 °FBroken clouds.6 mph94%30.27 "Hg4 mi
5:30 PM61 °FPartly sunny.7 mph94%30.27 "Hg5 mi
5:00 PM61 °FPartly sunny.6 mph94%30.27 "Hg5 mi
4:30 PM61 °FBroken clouds.7 mph94%30.27 "Hg5 mi
4:00 PM63 °FBroken clouds.6 mph88%30.27 "Hg6 mi
3:30 PM63 °FBroken clouds.5 mph88%30.27 "Hg6 mi
3:00 PM63 °FBroken clouds.3 mph88%30.27 "Hg5 mi
2:30 PM61 °FBroken clouds.5 mph94%30.27 "Hg4 mi
2:00 PM61 °FBroken clouds.5 mph94%30.27 "Hg4 mi
1:30 PM61 °FFog.5 mph94%30.27 "Hg3 mi
1:00 PM59 °FDrizzle. Fog.7 mph100%30.30 "Hg2 mi
12:30 PM61 °FFog.5 mph94%30.30 "Hg3 mi
12:00 PM59 °FFog.5 mph100%30.30 "Hg2 mi
11:30 AM59 °FFog.2 mph100%30.30 "Hg2 mi
11:00 AM59 °FFog.5 mph100%30.30 "Hg1 mi
10:30 AM59 °FFog.3 mph100%30.27 "Hg2 mi
10:00 AM59 °FFog.5 mph100%30.27 "Hg1 mi
9:30 AM59 °FFog.5 mph100%30.27 "Hg1 mi
9:00 AM59 °FFog.3 mph100%30.27 "Hg1 mi
8:30 AM59 °FFog.2 mph100%30.27 "Hg1 mi
8:00 AM59 °FSleet. Cloudy.1 mph94%30.27 "Hg1 mi
7:30 AM57 °FFog.3 mph100%30.24 "Hg0 mi
7:00 AM57 °FFog.No wind100%30.27 "Hg1 mi
6:30 AM57 °FFog.No wind100%30.24 "Hg0 mi
6:00 AM59 °FFog.No wind94%30.24 "Hg1 mi
5:30 AM59 °FFog.No wind94%30.24 "Hg1 mi
5:00 AM57 °FFog.No wind100%30.27 "Hg0 mi
4:30 AM57 °FFog.2 mph100%30.27 "Hg0 mi
4:00 AM57 °FFog.No wind100%30.27 "Hg1 mi
3:30 AM59 °FFog.1 mph94%30.24 "Hg1 mi
3:00 AM59 °FFog.3 mph100%30.24 "Hg1 mi
2:30 AM59 °FFog.3 mph100%30.24 "Hg1 mi
2:00 AM59 °FLight rain. Fog.5 mph100%30.27 "Hg1 mi
1:30 AM59 °FLight rain. Fog.2 mph94%30.27 "Hg1 mi
1:00 AM59 °FLight rain. Fog.1 mph100%30.27 "Hg2 mi
12:30 AM59 °FFog.3 mph94%30.27 "Hg1 mi
12:00 AM59 °FFog.2 mph94%30.27 "Hg1 mi
11:30 PM
Sep 30
59 °FFog.2 mph100%30.24 "Hg2 mi
10:30 PM59 °FFog.2 mph100%30.24 "Hg2 mi
10:00 PM61 °FFog.No wind94%30.24 "Hg3 mi
9:30 PM61 °FLight rain. Passing clouds.No wind88%30.27 "Hg4 mi
9:00 PM61 °FLight rain. Clear.No wind94%30.24 "Hg4 mi
8:30 PM63 °FClear.1 mph83%30.24 "Hg4 mi
8:00 PM63 °FClear.No wind83%30.24 "Hg4 mi
Weather by CustomWeather, © 2014

See weather overviewHow to use our weather pages